Location: Corralito
(10.2667°N, 66.9500°W)
Time: 03:25:09
(UTC+00:00)

Cosmos 1331 Rocket - Pass Details

Date: 14 December 2023
Orbit: 748 x 775 km, 74.0° (Epoch: 22 February)

Event Time Altitude Azimuth Distance (km) Brightness Sun altitude
Exits shadow 09:38:40 12° 332° (NNW) 2,137 5.9 -14.0°
Maximum altitude 09:43:17 50° 258° (WSW) 943 4.1 -12.9°
Drops below altitude 10° 09:48:13 10° 183° (S) 2,259 6.7 -11.8°
Sets 09:50:38 0° 178° (S) 3,183 7.5 -11.2°
